| time (UTC) | temp F | wind direction | speed MPH | gust MPH | rain 1hr in | rain 24hr in | rain mn in | humidity % | barometer mb |
| 20260502193759 | 94 | 246 | 6.0 | 18.0 | 0.00 | 0.00 | 0.00 | 32 | 1010.9 |
| 20260502193311 | 95 | 195 | 5.0 | 15.0 | 0.00 | 0.00 | 0.00 | 31 | 1011.0 |
| 20260502193116 | 94 | 155 | 3.0 | 15.0 | 0.00 | 0.00 | 0.00 | 35 | 1011.0 |
| 20260502192757 | 94 | 217 | 8.0 | 15.0 | 0.00 | 0.00 | 0.00 | 34 | 1011.1 |
| 20260502192300 | 94 | 272 | 7.0 | 19.0 | 0.00 | 0.00 | 0.00 | 32 | 1011.2 |
| 20260502191805 | 95 | 234 | 6.0 | 15.0 | 0.00 | 0.00 | 0.00 | 32 | 1011.3 |
| 20260502191617 | 95 | 241 | 5.0 | 14.0 | 0.00 | 0.00 | 0.00 | 34 | 1011.3 |
| 20260502191312 | 95 | 259 | 4.0 | 14.0 | 0.00 | 0.00 | 0.00 | 36 | 1011.2 |
| 20260502190759 | 94 | 248 | 3.0 | 14.0 | 0.00 | 0.00 | 0.00 | 36 | 1011.2 |
| 20260502190301 | 94 | 238 | 5.0 | 15.0 | 0.00 | 0.00 | 0.00 | 37 | 1011.4 |
| 20260502190002 | 94 | 219 | 6.0 | 15.0 | 0.00 | 0.00 | 0.00 | 36 | 1011.5 |
| 20260502185806 | 95 | 238 | 5.0 | 14.0 | 0.00 | 0.00 | 0.00 | 36 | 1011.4 |
| 20260502185324 | 94 | 240 | 6.0 | 19.0 | 0.00 | 0.00 | 0.00 | 37 | 1011.3 |
| 20260502184812 | 95 | 226 | 7.0 | 19.0 | 0.00 | 0.00 | 0.00 | 37 | 1011.3 |
| 20260502184514 | 94 | 232 | 5.0 | 17.0 | 0.00 | 0.00 | 0.00 | 36 | 1011.2 |
| 20260502184316 | 95 | 220 | 5.0 | 17.0 | 0.00 | 0.00 | 0.00 | 36 | 1011.2 |
| 20260502183821 | 95 | 211 | 3.0 | 14.0 | 0.00 | 0.00 | 0.00 | 36 | 1011.4 |
| 20260502183305 | 94 | 246 | 8.0 | 14.0 | 0.00 | 0.00 | 0.00 | 36 | 1011.4 |
| 20260502183101 | 94 | 229 | 5.0 | 12.0 | 0.00 | 0.00 | 0.00 | 36 | 1011.5 |
| 20260502182810 | 95 | 226 | 5.0 | 18.0 | 0.00 | 0.00 | 0.00 | 36 | 1011.5 |
| 20260502182308 | 94 | 248 | 6.0 | 18.0 | 0.00 | 0.00 | 0.00 | 36 | 1011.6 |
| 20260502181837 | 94 | 211 | 6.0 | 14.0 | 0.00 | 0.00 | 0.00 | 36 | 1011.6 |
| 20260502181512 | 93 | 255 | 5.0 | 14.0 | 0.00 | 0.00 | 0.00 | 36 | 1011.7 |
| 20260502181407 | 94 | 228 | 8.0 | 14.0 | 0.00 | 0.00 | 0.00 | 34 | 1011.7 |
| 20260502180827 | 95 | 238 | 7.0 | 13.0 | 0.00 | 0.00 | 0.00 | 35 | 1011.7 |
| 20260502180314 | 94 | 203 | 4.0 | 16.0 | 0.00 | 0.00 | 0.00 | 36 | 1011.6 |
| 20260502170301 | 92 | 249 | 3.0 | 14.0 | 0.00 | 0.00 | 0.00 | 48 | 1011.9 |
| 20260502164306 | 92 | 236 | 4.0 | 13.0 | 0.00 | 0.00 | 0.00 | 45 | 1012.1 |
| 20260502163821 | 93 | 243 | 5.0 | 10.0 | 0.00 | 0.00 | 0.00 | 45 | 1012.1 |
| 20260502163325 | 93 | 175 | 3.0 | 14.0 | 0.00 | 0.00 | 0.00 | 46 | 1012.1 |
| 20260502163009 | 91 | 95 | 4.0 | 14.0 | 0.00 | 0.00 | 0.00 | 49 | 1012.1 |
| 20260502162810 | 92 | 260 | 4.0 | 14.0 | 0.00 | 0.00 | 0.00 | 46 | 1012.2 |
| 20260502162316 | 92 | 234 | 2.0 | 12.0 | 0.00 | 0.00 | 0.00 | 51 | 1012.2 |
| 20260502161821 | 91 | 150 | 3.0 | 16.0 | 0.00 | 0.00 | 0.00 | 51 | 1012.3 |
| 20260502161556 | 90 | 221 | 1.0 | 16.0 | 0.00 | 0.00 | 0.00 | 53 | 1012.3 |
| 20260502161304 | 90 | 239 | 5.0 | 16.0 | 0.00 | 0.00 | 0.00 | 51 | 1012.3 |
| 20260502160808 | 90 | 71 | 1.0 | 8.0 | 0.00 | 0.00 | 0.00 | 55 | 1012.3 |
| 20260502160318 | 91 | 224 | 3.0 | 8.0 | 0.00 | 0.00 | 0.00 | 52 | 1012.3 |
| 20260502152315 | 90 | 39 | 2.0 | 9.0 | 0.00 | 0.00 | 0.00 | 55 | 1012.7 |
| 20260502151820 | 89 | 223 | 4.0 | 9.0 | 0.00 | 0.00 | 0.00 | 55 | 1012.8 |
| 20260502151612 | 88 | 221 | 2.0 | 10.0 | 0.00 | 0.00 | 0.00 | 56 | 1012.8 |
| 20260502151305 | 88 | 303 | 3.0 | 10.0 | 0.00 | 0.00 | 0.00 | 56 | 1012.7 |
| 20260502150805 | 89 | 233 | 2.0 | 10.0 | 0.00 | 0.00 | 0.00 | 56 | 1012.7 |
| 20260502150259 | 88 | 221 | 2.0 | 8.0 | 0.00 | 0.00 | 0.00 | 58 | 1012.7 |
| 20260502130311 | 85 | 211 | 1.0 | 5.0 | 0.00 | 0.00 | 0.00 | 63 | 1012.1 |
| 20260502123807 | 84 | 70 | 3.0 | 9.0 | 0.00 | 0.00 | 0.00 | 69 | 1012.4 |
| 20260502123337 | 83 | 96 | 2.0 | 6.0 | 0.00 | 0.00 | 0.00 | 71 | 1012.4 |
| 20260502123013 | 83 | 245 | 2.0 | 6.0 | 0.00 | 0.00 | 0.00 | 71 | 1012.3 |
| 20260502122822 | 83 | 126 | 0.0 | 6.0 | 0.00 | 0.00 | 0.00 | 72 | 1012.3 |
| 20260502122308 | 83 | 78 | 1.0 | 3.0 | 0.00 | 0.00 | 0.00 | 73 | 1012.2 |
| 20260502121814 | 82 | 110 | 0.0 | 4.0 | 0.00 | 0.00 | 0.00 | 73 | 1012.3 |
| 20260502121603 | 81 | 232 | 0.0 | 4.0 | 0.00 | 0.00 | 0.00 | 73 | 1012.3 |
| 20260502121300 | 82 | 63 | 1.0 | 4.0 | 0.00 | 0.00 | 0.00 | 74 | 1012.3 |
| 20260502120805 | 81 | 108 | 0.0 | 2.0 | 0.00 | 0.00 | 0.00 | 75 | 1012.3 |
| 20260502120311 | 80 | 356 | 0.0 | 2.0 | 0.00 | 0.00 | 0.00 | 76 | 1012.3 |
| 20260502115756 | 80 | 18 | 0.0 | 2.0 | 0.00 | 0.00 | 0.00 | 78 | 1012.3 |
| 20260502115305 | 79 | 47 | 0.0 | 1.0 | 0.00 | 0.00 | 0.00 | 79 | 1012.3 |
| 20260502114807 | 78 | 77 | 0.0 | 1.0 | 0.00 | 0.00 | 0.00 | 79 | 1012.3 |
| 20260502114551 | 77 | 68 | 0.0 | 1.0 | 0.00 | 0.00 | 0.00 | 80 | 1012.4 |
| 20260502114312 | 77 | 68 | 0.0 | 3.0 | 0.00 | 0.00 | 0.00 | 80 | 1012.3 |
| 20260502113759 | 77 | 117 | 1.0 | 3.0 | 0.00 | 0.00 | 0.00 | 80 | 1012.3 |
| 20260502113306 | 76 | 117 | 0.0 | 1.0 | 0.00 | 0.00 | 0.00 | 81 | 1012.2 |
| 20260502113043 | 75 | 116 | 0.0 | 1.0 | 0.00 | 0.00 | 0.00 | 82 | 1012.4 |
| 20260502112830 | 75 | 86 | 0.0 | 0.0 | 0.00 | 0.00 | 0.00 | 82 | 1012.4 |
| 20260502112335 | 75 | 85 | 0.0 | 0.0 | 0.00 | 0.00 | 0.00 | 81 | 1012.4 |
| 20260502111758 | 75 | 85 | 0.0 | 0.0 | 0.00 | 0.00 | 0.00 | 81 | 1012.3 |
| 20260502111604 | 74 | 85 | 0.0 | 0.0 | 0.00 | 0.00 | 0.00 | 81 | 1012.3 |
| 20260502111303 | 75 | 85 | 0.0 | 0.0 | 0.00 | 0.00 | 0.00 | 80 | 1012.3 |
| 20260502110804 | 75 | 85 | 0.0 | 0.0 | 0.00 | 0.00 | 0.00 | 80 | 1012.3 |
| 20260502110305 | 75 | 85 | 0.0 | 0.0 | 0.00 | 0.00 | 0.00 | 80 | 1012.4 |
| 20260502110025 | 75 | 85 | 0.0 | 0.0 | 0.00 | 0.00 | 0.00 | 80 | 1012.4 |
| 20260502105817 | 75 | 85 | 0.0 | 0.0 | 0.00 | 0.00 | 0.00 | 80 | 1012.4 |
| 20260502105322 | 75 | 85 | 0.0 | 0.0 | 0.00 | 0.00 | 0.00 | 79 | 1012.3 |
| 20260502104806 | 75 | 85 | 0.0 | 0.0 | 0.00 | 0.00 | 0.00 | 79 | 1012.3 |
| 20260502104511 | 75 | 85 | 0.0 | 0.0 | 0.00 | 0.00 | 0.00 | 79 | 1012.3 |
| 20260502104314 | 76 | 85 | 0.0 | 0.0 | 0.00 | 0.00 | 0.00 | 78 | 1012.2 |
| 20260502103819 | 76 | 86 | 0.0 | 0.0 | 0.00 | 0.00 | 0.00 | 78 | 1012.3 |
| 20260502103302 | 76 | 85 | 0.0 | 0.0 | 0.00 | 0.00 | 0.00 | 78 | 1012.2 |
| 20260502103056 | 76 | 85 | 0.0 | 0.0 | 0.00 | 0.00 | 0.00 | 78 | 1012.3 |
| 20260502102808 | 76 | 85 | 0.0 | 0.0 | 0.00 | 0.00 | 0.00 | 78 | 1012.2 |
| 20260502102310 | 76 | 79 | 0.0 | 0.0 | 0.00 | 0.00 | 0.00 | 78 | 1012.1 |
| 20260502101813 | 76 | 311 | 0.0 | 0.0 | 0.00 | 0.00 | 0.00 | 79 | 1012.2 |
| 20260502101610 | 75 | 311 | 0.0 | 0.0 | 0.00 | 0.00 | 0.00 | 79 | 1012.3 |
| 20260502101259 | 75 | 311 | 0.0 | 0.0 | 0.00 | 0.00 | 0.00 | 79 | 1012.3 |
| 20260502100806 | 75 | 311 | 0.0 | 0.0 | 0.00 | 0.00 | 0.00 | 79 | 1012.4 |
| 20260502100305 | 75 | 311 | 0.0 | 0.0 | 0.00 | 0.00 | 0.00 | 79 | 1012.4 |
| 20260502091504 | 74 | 311 | 0.0 | 0.0 | 0.00 | 0.00 | 0.00 | 79 | 1012.3 |
| 20260502091257 | 75 | 311 | 0.0 | 0.0 | 0.00 | 0.00 | 0.00 | 78 | 1012.2 |
| 20260502090803 | 75 | 311 | 0.0 | 0.0 | 0.00 | 0.00 | 0.00 | 79 | 1012.2 |
| 20260502090309 | 75 | 311 | 0.0 | 0.0 | 0.00 | 0.00 | 0.00 | 79 | 1012.2 |
| 20260502071506 | 75 | 115 | 0.0 | 0.0 | 0.00 | 0.00 | 0.00 | 83 | 1012.1 |
| 20260502071301 | 75 | 115 | 0.0 | 0.0 | 0.00 | 0.00 | 0.00 | 83 | 1012.0 |
| 20260502070806 | 75 | 115 | 0.0 | 0.0 | 0.00 | 0.00 | 0.00 | 83 | 1012.0 |
| 20260502070309 | 75 | 115 | 0.0 | 0.0 | 0.00 | 0.00 | 0.00 | 83 | 1012.1 |
| 20260502070009 | 74 | 115 | 0.0 | 0.0 | 0.00 | 0.00 | 0.00 | 83 | 1012.1 |
| 20260502065815 | 75 | 115 | 0.0 | 0.0 | 0.00 | 0.00 | 0.00 | 83 | 1012.0 |
| 20260502065320 | 75 | 115 | 0.0 | 0.0 | 0.00 | 0.00 | 0.00 | 84 | 1012.0 |
| 20260502064826 | 75 | 115 | 0.0 | 0.0 | 0.00 | 0.00 | 0.00 | 83 | 1012.1 |
| 20260502064556 | 74 | 115 | 0.0 | 0.0 | 0.00 | 0.00 | 0.00 | 83 | 1012.0 |
| 20260502064310 | 75 | 115 | 0.0 | 0.0 | 0.00 | 0.00 | 0.00 | 82 | 1012.1 |
| 20260502063810 | 75 | 115 | 0.0 | 0.0 | 0.00 | 0.00 | 0.00 | 83 | 1012.2 |
| 20260502063320 | 75 | 115 | 0.0 | 0.0 | 0.00 | 0.00 | 0.00 | 83 | 1012.2 |
| 20260502063017 | 74 | 115 | 0.0 | 0.0 | 0.00 | 0.00 | 0.00 | 83 | 1012.2 |
| 20260502062804 | 75 | 115 | 0.0 | 0.0 | 0.00 | 0.00 | 0.00 | 83 | 1012.3 |
| 20260502062329 | 75 | 115 | 0.0 | 0.0 | 0.00 | 0.00 | 0.00 | 82 | 1012.4 |
| 20260502061809 | 75 | 115 | 0.0 | 0.0 | 0.00 | 0.00 | 0.00 | 82 | 1012.4 |
| 20260502061527 | 74 | 115 | 0.0 | 0.0 | 0.00 | 0.00 | 0.00 | 82 | 1012.4 |
| 20260502061319 | 75 | 115 | 0.0 | 0.0 | 0.00 | 0.00 | 0.00 | 82 | 1012.4 |
| 20260502060823 | 75 | 115 | 0.0 | 0.0 | 0.00 | 0.00 | 0.00 | 81 | 1012.3 |
| 20260502060305 | 75 | 115 | 0.0 | 0.0 | 0.00 | 0.00 | 0.00 | 81 | 1012.3 |
| 20260502060023 | 75 | 115 | 0.0 | 0.0 | 0.00 | 0.00 | 0.00 | 81 | 1012.4 |
| 20260502055811 | 75 | 115 | 0.0 | 0.0 | 0.00 | 0.00 | 0.00 | 81 | 1012.4 |
| 20260502055316 | 76 | 115 | 0.0 | 0.0 | 0.00 | 0.00 | 0.00 | 81 | 1012.2 |
| 20260502054801 | 76 | 115 | 0.0 | 0.0 | 0.00 | 0.00 | 0.00 | 81 | 1012.3 |
| 20260502054612 | 75 | 115 | 0.0 | 0.0 | 0.00 | 0.00 | 0.00 | 81 | 1012.3 |
| 20260502054306 | 76 | 115 | 0.0 | 0.0 | 0.00 | 0.00 | 0.00 | 80 | 1012.3 |
| 20260502053815 | 76 | 115 | 0.0 | 0.0 | 0.00 | 0.00 | 0.00 | 80 | 1012.3 |
| 20260502053301 | 76 | 115 | 0.0 | 0.0 | 0.00 | 0.00 | 0.00 | 80 | 1012.3 |
| 20260502053055 | 76 | 115 | 0.0 | 0.0 | 0.00 | 0.00 | 0.00 | 79 | 1012.4 |
| 20260502052806 | 76 | 115 | 0.0 | 1.0 | 0.00 | 0.00 | 0.00 | 79 | 1012.4 |
| 20260502052312 | 76 | 115 | 0.0 | 1.0 | 0.00 | 0.00 | 0.00 | 80 | 1012.4 |
| 20260502051758 | 76 | 116 | 0.0 | 0.0 | 0.00 | 0.00 | 0.00 | 79 | 1012.5 |
| 20260502051604 | 76 | 115 | 0.0 | 0.0 | 0.00 | 0.00 | 0.00 | 79 | 1012.6 |
| 20260502051304 | 76 | 116 | 0.0 | 0.0 | 0.00 | 0.00 | 0.00 | 79 | 1012.6 |
| 20260502050808 | 76 | 115 | 0.0 | 0.0 | 0.00 | 0.00 | 0.00 | 79 | 1012.6 |
| 20260502050308 | 76 | 120 | 0.0 | 0.0 | 0.00 | 0.00 | 0.00 | 79 | 1012.7 |
| 20260502050026 | 76 | 120 | 0.0 | 0.0 | 0.00 | 0.00 | 0.00 | 78 | 1012.8 |
| 20260502045816 | 76 | 119 | 0.0 | 0.0 | 0.00 | 0.00 | 0.00 | 78 | 1012.7 |
| 20260502045257 | 76 | 119 | 0.0 | 0.0 | 0.00 | 0.00 | 0.00 | 78 | 1012.7 |
| 20260502044803 | 76 | 252 | 0.0 | 0.0 | 0.00 | 0.00 | 0.00 | 78 | 1012.7 |
| 20260502044505 | 76 | 252 | 0.0 | 0.0 | 0.00 | 0.00 | 0.00 | 77 | 1012.8 |
| 20260502044308 | 76 | 252 | 0.0 | 0.0 | 0.00 | 0.00 | 0.00 | 77 | 1012.8 |